Left ArrowRight Arrow

38.20091, -84.87328

Hourly Observations for June 16, 2024

Temp ( °F °C ) Dew Point ( °F °C ) Humidity (%) Winds ( mph kmh ) Pressure ( in mb ) Visibility ( mi km ) Precip ( " mm )
12:53 am 00:53 Clear 68 20 N/A N/A E 7 11 30.03 1017 10 16 0.00 0.00
1:53 am 01:53 Clear 68 20 N/A N/A ESE 6 9 30.02 1017 10 16 0.00 0.00
2:53 am 02:53 Clear 66 18.9 N/A N/A ENE 5 7 30.02 1017 10 16 0.00 0.00
3:53 am 03:53 Clear 61 16.1 N/A N/A Calm 30.02 1017 10 16 0.00 0.00
4:53 am 04:53 Clear 58 14.4 N/A N/A Calm 30.02 1017 10 16 0.00 0.00
5:53 am 05:53 Clear 59 15 N/A N/A Calm 30.03 1017 10 16 0.00 0.00
6:53 am 06:53 Sunny 59 15 N/A N/A Calm 30.04 1017 10 16 0.00 0.00
7:53 am 07:53 Sunny 65 18.3 N/A N/A ESE 3 6 30.04 1017 10 16 0.00 0.00
8:53 am 08:53 Sunny 70 21.1 N/A N/A Calm 30.05 1018 10 16 0.00 0.00
9:53 am 09:53 Sunny 76 24.4 N/A N/A SSE 3 6 30.05 1018 10 16 0.00 0.00
10:53 am 10:53 Sunny 81 27.2 61 16.1 51 51 Calm 30.05 1018 10 16 0.00 0.00
11:53 am 11:53 Sunny 85 29.4 62 16.7 46 46 VRB 5 7 30.05 1018 10 16 0.00 0.00
12:53 pm 12:53 Sunny 88 31.1 62 16.7 42 42 VRB 5 7 30.04 1017 10 16 0.00 0.00
1:53 pm 13:53 Sunny 89 31.7 64 17.8 44 44 undefined N/A 30.04 1017 10 16 0.00 0.00
2:53 pm 14:53 Sunny 90 32.2 67 19.4 47 47 S 6 9 30.01 1016 10 16 0.00 0.00
3:53 pm 15:53 Sunny 91 32.8 68 20 47 47 WNW 5 7 30.00 1016 10 16 0.00 0.00
4:53 pm 16:53 Sunny 92 33.3 69 20.6 47 47 SE 8 13 29.98 1015 10 16 0.00 0.00
5:53 pm 17:53 Sunny 92 33.3 69 20.6 47 47 S 8 13 29.96 1015 10 16 0.00 0.00
6:53 pm 18:53 Sunny 91 32.8 69 20.6 49 49 ESE 7 11 29.96 1015 10 16 0.00 0.00
7:53 pm 19:53 Sunny 90 32.2 70 21.1 52 52 SE 7 11 29.95 1014 10 16 0.00 0.00
8:53 pm 20:53 Sunny 87 30.6 70 21.1 57 57 S 5 7 29.98 1015 10 16 0.00 0.00
9:53 pm 21:53 Clear 86 30 70 21.1 59 59 S 7 11 29.98 1015 10 16 0.00 0.00
10:53 pm 22:53 Mostly Clear 82 27.8 71 21.7 69 69 S 3 6 30.00 1016 10 16 0.00 0.00
11:53 pm 23:53 Clear 83 28.3 72 22.2 70 70 SSW 8 13 30.01 1016 10 16 0.00 0.00

Powered by Vaisala Xweather